Weather History for Alva, OK

Change the Weather History Date:

Wednesday, October 10, 2012

  Actual Average Record
Temperature  
Mean Temperature 52 °F -  
Max Temperature 68 °F 78 °F 96 °F (1965)
Min Temperature 37 °F 46 °F 32 °F (1990)
Degree Days  
Heating Degree Days 12    
Growing Degree Days 2 (Base 50)    
Moisture  
Dew Point 32 °F    
Average Humidity 48    
Maximum Humidity 81    
Minimum Humidity 23    
Precipitation  
Precipitation 0.00 in - - ()
Sea Level Pressure  
Sea Level Pressure 30.20 in    
Wind  
Wind Speed 8 mph (ESE)    
Max Wind Speed 14 mph    
Max Gust Speed 20 mph    
Visibility 10 miles    
Events      
Averages and records for this station are not official NWS values.
T = Trace of Precipitation, MM = Missing Value Source: NWS Daily Summary

Daily Weather History Graph

Daily Weather History Graph

Search for Another Location

Airport:

Trip Planner

Search our weather history database for the weather conditions in past years. The results will help you decide how hot, cold, wet, or windy it might be!

Date:

Astronomy

Oct. 10, 2012 Rise Set
Actual Time 7:38 AM CDT 7:04 PM CDT
Civil Twilight 7:12 AM CDT 7:30 PM CDT
Nautical Twilight 6:42 AM CDT 8:00 PM CDT
Astronomical Twilight 6:12 AM CDT 8:30 PM CDT
Moon 2:23 AM CDT (10/10) 4:01 PM CDT (10/10)
Length of Visible Light 12h 18m
Length of Day
11h 26m
Waning Crescent, 27% of the Moon is Illuminated
Oct 10
Waning Crescent
Oct 15
New
Oct 21
First Quarter
Oct 29
Full
Nov 6
Last Quarter

Hourly Weather History & Observations

Time (CDT) Temp. Windchill Dew Point Humidity Pressure Visibility Wind Dir Wind Speed Gust Speed Precip Events Conditions
12:00 AM 48.2 °F - 39.2 °F 71% 30.18 in 10.0 mi NNE 9.2 mph - N/A   Partly Cloudy
12:20 AM 48.2 °F - 39.2 °F 71% 30.18 in 10.0 mi NNE 9.2 mph - N/A   Scattered Clouds
12:40 AM 48.2 °F - 39.2 °F 71% 30.19 in 10.0 mi NNE 9.2 mph - N/A   Mostly Cloudy
1:00 AM 46.4 °F 42.4 °F 39.2 °F 76% 30.19 in 10.0 mi NNE 8.1 mph - N/A   Mostly Cloudy
1:20 AM 46.4 °F 42.4 °F 39.2 °F 76% 30.19 in 10.0 mi NNE 8.1 mph - N/A   Scattered Clouds
1:40 AM 44.6 °F 40.2 °F 37.4 °F 76% 30.20 in 10.0 mi NNE 8.1 mph - N/A   Partly Cloudy
2:00 AM 44.6 °F 40.2 °F 37.4 °F 76% 30.21 in 10.0 mi NNE 8.1 mph - N/A   Partly Cloudy
2:20 AM 44.6 °F 40.2 °F 35.6 °F 71% 30.22 in 10.0 mi NNE 8.1 mph - N/A   Partly Cloudy
2:40 AM 44.6 °F 40.2 °F 33.8 °F 66% 30.23 in 10.0 mi North 8.1 mph - N/A   Partly Cloudy
2:55 AM 44.6 °F 40.2 °F 32.0 °F 61% 30.23 in 10.0 mi North 8.1 mph - N/A   Partly Cloudy
3:20 AM 42.8 °F 39.3 °F 32.0 °F 66% 30.23 in 10.0 mi North 5.8 mph - N/A   Partly Cloudy
3:40 AM 41.0 °F 38.0 °F 32.0 °F 70% 30.23 in 10.0 mi North 4.6 mph - N/A   Partly Cloudy
4:00 AM 41.0 °F 39.0 °F 32.0 °F 70% 30.24 in 10.0 mi North 3.5 mph - N/A   Clear
4:20 AM 42.8 °F 40.1 °F 32.0 °F 66% 30.23 in 10.0 mi North 4.6 mph - N/A   Clear
4:40 AM 41.0 °F 36.4 °F 32.0 °F 70% 30.23 in 10.0 mi NNE 6.9 mph - N/A   Clear
5:00 AM 39.2 °F 34.2 °F 32.0 °F 75% 30.23 in 10.0 mi North 6.9 mph - N/A   Clear
5:20 AM 39.2 °F 35.0 °F 32.0 °F 75% 30.24 in 10.0 mi North 5.8 mph - N/A   Clear
5:40 AM 39.2 °F 33.6 °F 32.0 °F 75% 30.24 in 10.0 mi North 8.1 mph - N/A   Clear
6:20 AM 37.4 °F 31.4 °F 32.0 °F 81% 30.24 in 10.0 mi North 8.1 mph - N/A   Partly Cloudy
6:40 AM 37.4 °F 33.8 °F 32.0 °F 81% 30.26 in 10.0 mi North 4.6 mph - N/A   Clear
7:00 AM 39.2 °F 35.9 °F 30.2 °F 70% 30.26 in 10.0 mi North 4.6 mph - N/A   Clear
7:20 AM 39.2 °F 35.9 °F 30.2 °F 70% 30.27 in 10.0 mi North 4.6 mph - N/A   Partly Cloudy
7:40 AM 37.4 °F - 30.2 °F 75% 30.28 in 9.0 mi Calm Calm - N/A   Partly Cloudy
8:00 AM 37.4 °F 33.8 °F 32.0 °F 81% 30.28 in 8.0 mi NW 4.6 mph - N/A   Clear
8:20 AM 41.0 °F 38.0 °F 32.0 °F 70% 30.29 in 9.0 mi NW 4.6 mph - N/A   Clear
8:40 AM 44.6 °F 42.2 °F 32.0 °F 61% 30.30 in 10.0 mi NW 4.6 mph - N/A   Clear
9:00 AM 46.4 °F 45.2 °F 32.0 °F 57% 30.30 in 10.0 mi NW 3.5 mph - N/A   Clear
9:20 AM 48.2 °F - 28.4 °F 46% 30.31 in 10.0 mi Calm Calm - N/A   Clear
9:40 AM 50.0 °F - 28.4 °F 43% 30.31 in 10.0 mi ESE 4.6 mph - N/A   Clear
10:00 AM 51.8 °F - 28.4 °F 41% 30.31 in 10.0 mi ESE 3.5 mph - N/A   Clear
10:20 AM 53.6 °F - 28.4 °F 38% 30.31 in 10.0 mi ESE 5.8 mph - N/A   Clear
10:40 AM 55.4 °F - 28.4 °F 36% 30.31 in 10.0 mi ESE 8.1 mph - N/A   Clear
11:00 AM 57.2 °F - 26.6 °F 31% 30.30 in 10.0 mi SE 11.5 mph - N/A   Clear
11:20 AM 57.2 °F - 24.8 °F 29% 30.30 in 10.0 mi SE 10.4 mph - N/A   Clear
11:40 AM 59.0 °F - 24.8 °F 27% 30.29 in 10.0 mi ESE 9.2 mph 16.1 mph N/A   Clear
12:00 PM 59.0 °F - 26.6 °F 29% 30.29 in 10.0 mi SSE 10.4 mph - N/A   Clear
12:20 PM 59.0 °F - 26.6 °F 29% 30.28 in 10.0 mi ESE 10.4 mph - N/A   Clear
12:40 PM 60.8 °F - 24.8 °F 25% 30.27 in 10.0 mi SE 10.4 mph 16.1 mph N/A   Clear
1:00 PM 60.8 °F - 26.6 °F 27% 30.26 in 10.0 mi ESE 8.1 mph - N/A   Clear
1:20 PM 62.6 °F - 26.6 °F 26% 30.25 in 10.0 mi ESE 6.9 mph - N/A   Clear
1:40 PM 62.6 °F - 26.6 °F 26% 30.22 in 10.0 mi East 10.4 mph - N/A   Clear
2:00 PM 64.4 °F - 26.6 °F 24% 30.21 in 10.0 mi South 5.8 mph - N/A   Clear
2:20 PM 62.6 °F - 26.6 °F 26% 30.20 in 10.0 mi SE 5.8 mph 17.3 mph N/A   Clear
2:40 PM 64.4 °F - 26.6 °F 24% 30.18 in 10.0 mi ESE 10.4 mph 17.3 mph N/A   Clear
3:00 PM 64.4 °F - 26.6 °F 24% 30.18 in 10.0 mi SSE 8.1 mph 17.3 mph N/A   Clear
3:20 PM 66.2 °F - 28.4 °F 24% 30.17 in 10.0 mi ESE 12.7 mph - N/A   Clear
3:40 PM 66.2 °F - 28.4 °F 24% 30.16 in 10.0 mi SE 8.1 mph - N/A   Clear
4:00 PM 66.2 °F - 28.4 °F 24% 30.15 in 10.0 mi ESE 13.8 mph 19.6 mph N/A   Clear
4:20 PM 66.2 °F - 28.4 °F 24% 30.14 in 10.0 mi SSE 10.4 mph - N/A   Clear
4:40 PM 68.0 °F - 28.4 °F 23% 30.13 in 10.0 mi SSE 12.7 mph 16.1 mph N/A   Clear
5:00 PM 66.2 °F - 28.4 °F 24% 30.13 in 10.0 mi SSE 10.4 mph 17.3 mph N/A   Clear
5:20 PM 66.2 °F - 28.4 °F 24% 30.12 in 10.0 mi SSE 10.4 mph 18.4 mph N/A   Clear
5:40 PM 66.2 °F - 30.2 °F 26% 30.12 in 10.0 mi SE 10.4 mph - N/A   Mostly Cloudy
6:20 PM 64.4 °F - 32.0 °F 30% 30.11 in 10.0 mi SSE 11.5 mph - N/A   Overcast
6:40 PM 62.6 °F - 32.0 °F 32% 30.11 in 10.0 mi SE 9.2 mph - N/A   Scattered Clouds
7:00 PM 59.0 °F - 32.0 °F 36% 30.10 in 10.0 mi SE 8.1 mph - N/A   Clear
7:20 PM 57.2 °F - 32.0 °F 38% 30.10 in 10.0 mi SE 6.9 mph - N/A   Mostly Cloudy
7:40 PM 57.2 °F - 32.0 °F 38% 30.11 in 7.0 mi SSE 10.4 mph - N/A   Overcast
8:00 PM 57.2 °F - 33.8 °F 41% 30.11 in 10.0 mi SSE 6.9 mph - N/A   Overcast
8:20 PM 55.4 °F - 32.0 °F 41% 30.11 in 10.0 mi SSE 6.9 mph - N/A   Overcast
8:40 PM 57.2 °F - 33.8 °F 41% 30.11 in 8.0 mi SSE 6.9 mph - N/A   Overcast
9:00 PM 57.2 °F - 35.6 °F 44% 30.10 in 5.0 mi SSE 8.1 mph - N/A   Haze
9:20 PM 59.0 °F - 35.6 °F 42% 30.10 in 10.0 mi SSE 9.2 mph - N/A   Overcast
9:40 PM 57.2 °F - 37.4 °F 48% 30.10 in 10.0 mi South 6.9 mph - N/A   Overcast
10:00 PM 57.2 °F - 37.4 °F 48% 30.11 in 10.0 mi SSE 8.1 mph - N/A   Overcast
10:20 PM 57.2 °F - 37.4 °F 48% 30.11 in 10.0 mi South 6.9 mph - N/A   Overcast
10:40 PM 59.0 °F - 37.4 °F 45% 30.11 in 10.0 mi South 6.9 mph - N/A   Overcast
11:00 PM 59.0 °F - 39.2 °F 48% 30.11 in 10.0 mi South 8.1 mph - N/A   Overcast
11:20 PM 59.0 °F - 39.2 °F 48% 30.11 in 10.0 mi South 8.1 mph - N/A   Overcast
11:40 PM 59.0 °F - 39.2 °F 48% 30.11 in 10.0 mi South 9.2 mph - N/A   Overcast